Simultaneous Nadir Overpasses (SNOs) Predictions

Prediction of SNOs between GOES-16 and LANDSAT-8 Satellite Orbit:

Table of predicted SNOs for the next 14.0 days since TLE Epoch: 2/15/2020
Index Date Time (GOES-16) GOES-16 Lat,Lon LANDSAT-8 Lat,Lon Distance(km) Time Diff (sec)
1 02/15/2020 03:15:45 0.02, -75.20 -0.18, -76.14 107.15 80
2 02/17/2020 03:06:13 0.02, -75.20 0.42, -73.18 229.68 80
3 02/17/2020 15:24:49 -0.03, -75.22 0.64, -78.34 354.60 80
4 02/19/2020 15:12:37 -0.03, -75.24 0.03, -75.38 17.41 80
5 02/21/2020 15:03:06 -0.03, -75.26 -0.64, -72.44 321.08 80
6 02/22/2020 03:21:50 0.04, -75.25 -0.47, -77.63 270.77 80
7 02/24/2020 03:12:18 0.03, -75.27 0.15, -74.67 68.55 80
8 02/26/2020 03:00:07 0.03, -75.31 0.82, -71.72 408.61 80
9 02/26/2020 15:18:41 -0.04, -75.34 0.30, -76.87 174.94 80
10 02/28/2020 15:09:11 -0.04, -75.38 -0.37, -73.93 165.77 80




NCC Satellite Simultaneous Nadir Overpasses (SNOs) Prediction Service
